{"data":{"norad_id":39168,"intl_designator":"2013-024A","name":"WGS F5 (USA 243)","alt_names":[],"object_type":"PAYLOAD","status":"ACTIVE","operator":null,"country":"US","launch_date":"2013-05-25","launch_site_code":"AFETR","launch_vehicle":null,"mission":null,"orbit_class":"UNKNOWN","rcs_meters":17.9433,"size_class":null,"mass_kg":null,"dimensions":null,"purposes":["comms"],"wikipedia_slug":null,"has_3d_model":false,"image_url":null,"decayed_at":null,"tle_current":{"epoch":"2026-09-19T01:19:35.268384Z","epoch_age_seconds":146757,"freshness":"FRESH","line1":"1 39168U 13024A   26262.05526931 -.00000289  00000+0  00000+0 0  9994","line2":"2 39168   0.0169 178.6752 0000520 356.1653 150.5366  1.00272431 48117","mean_motion":1.00272431,"eccentricity":5.2e-5,"inclination_deg":0.0169,"raan_deg":178.6752,"arg_perigee_deg":356.1653,"mean_anomaly_deg":150.5366,"bstar":0,"rev_number":4811,"period_min":1436.0876520486,"perigee_km":35784.221308267,"apogee_km":35788.606421557,"semimajor_km":42164.550864912,"source":"CELESTRAK","updated_at":"2026-09-20T09:00:35.204149Z"}}}